DW1920 Weather Reports


Display with metric or nautical units.
time (UTC)temp
F
wind
direction
speed
MPH
gust
MPH
rain 1hr
in
rain 24hr
in
rain mn
in
humidity
%
barometer
mb
20260504031002 45 270 10.0 14.0 0.00 0.38 0.38 63 1005.8
20260504030024 45 270 12.0 18.0 0.00 0.38 0.38 62 1005.7
20260504025003 45 271 10.0 18.0 0.00 0.38 0.38 62 1005.7
20260504024003 45 273 12.0 17.0 0.00 0.38 0.38 61 1005.6
20260504023003 45 275 12.0 18.0 0.00 0.38 0.38 61 1005.4
20260504022023 46 276 13.0 18.0 0.00 0.38 0.38 60 1005.4
20260504021003 46 278 11.0 16.0 0.00 0.38 0.38 59 1005.3
20260504020002 46 275 12.0 19.0 0.00 0.38 0.38 58 1005.2
20260504015003 46 277 13.0 21.0 0.00 0.38 0.38 57 1005.1
20260504014023 46 277 11.0 19.0 0.00 0.38 0.38 57 1005.1
20260504013003 46 282 9.0 16.0 0.00 0.38 0.38 57 1005.1
20260504012025 47 278 8.0 13.0 0.00 0.38 0.38 58 1004.9
20260504011003 47 280 10.0 16.0 0.00 0.38 0.38 55 1004.7
20260504010004 47 285 12.0 16.0 0.00 0.38 0.38 54 1004.5
20260504005003 47 288 9.0 17.0 0.00 0.38 0.38 54 1004.3
20260504004002 48 285 12.0 18.0 0.00 0.38 0.38 52 1004.1
20260504003003 48 290 12.0 21.0 0.00 0.38 0.38 52 1003.9
20260504002003 48 293 14.0 25.0 0.00 0.38 0.38 51 1003.7
20260504001003 49 294 12.0 26.0 0.00 0.38 0.38 50 1003.6
20260504000003 49 297 18.0 27.0 0.00 0.38 0.38 49 1003.5
20260503235002 49 296 20.0 29.0 0.00 0.38 0.38 48 1003.2
20260503234003 50 284 13.0 27.0 0.00 0.38 0.38 51 1003.0
20260503233002 50 294 16.0 28.0 0.00 0.38 0.38 51 1002.6
20260503232003 50 292 13.0 26.0 0.00 0.38 0.38 53 1002.6
20260503231002 50 292 14.0 22.0 0.00 0.38 0.38 56 1002.3
20260503230003 50 295 13.0 22.0 0.00 0.38 0.38 62 1002.2
20260503225002 49 278 8.0 12.0 0.00 0.38 0.38 68 1002.1
20260503224003 49 276 8.0 11.0 0.00 0.38 0.38 69 1002.1
20260503223002 49 279 8.0 10.0 0.00 0.38 0.38 69 1001.9
20260503222003 50 281 6.0 10.0 0.00 0.38 0.38 69 1001.7
20260503221003 50 289 7.0 14.0 0.00 0.38 0.38 69 1001.6
20260503220003 51 310 7.0 15.0 0.00 0.38 0.38 69 1001.5
20260503215024 52 304 7.0 15.0 0.00 0.38 0.38 71 1001.5
20260503214002 51 316 9.0 17.0 0.00 0.38 0.38 74 1001.4
20260503213003 50 308 6.0 15.0 0.00 0.38 0.38 75 1001.5
20260503212002 50 307 7.0 14.0 0.00 0.38 0.38 74 1001.5
20260503211003 49 310 9.0 17.0 0.00 0.38 0.38 75 1001.5
20260503210003 49 318 10.0 16.0 0.00 0.38 0.38 77 1001.6
20260503205004 49 310 8.0 16.0 0.00 0.38 0.38 78 1001.8
20260503204003 49 310 9.0 19.0 0.00 0.38 0.38 81 1001.7
20260503203024 49 297 10.0 17.0 0.00 0.38 0.38 82 1001.8
20260503202003 48 303 8.0 16.0 0.00 0.38 0.38 84 1001.8
20260503201003 48 302 7.0 15.0 0.00 0.38 0.38 84 1001.7
20260503200003 47 307 11.0 18.0 0.00 0.38 0.38 85 1001.9
20260503195003 47 314 10.0 17.0 0.00 0.38 0.38 86 1001.9
20260503194003 46 320 10.0 21.0 0.00 0.38 0.38 87 1002.0
20260503193003 46 324 7.0 15.0 0.00 0.38 0.38 87 1002.0
20260503192003 46 337 12.0 23.0 0.00 0.38 0.38 88 1002.2
20260503191002 45 339 11.0 21.0 0.00 0.38 0.38 89 1002.3
20260503190003 44 350 11.0 22.0 0.01 0.38 0.38 90 1002.3
20260503185002 44 346 10.0 25.0 0.01 0.38 0.38 91 1002.3
20260503184003 44 353 10.0 20.0 0.01 0.38 0.38 91 1002.4
20260503183025 43 354 11.0 25.0 0.01 0.38 0.38 91 1002.2
20260503182004 43 343 11.0 29.0 0.01 0.38 0.38 91 1002.3
20260503181003 43 347 14.0 28.0 0.01 0.38 0.38 92 1002.3
20260503180003 44 342 11.0 23.0 0.02 0.37 0.37 92 1002.3
20260503175002 44 349 11.0 21.0 0.02 0.37 0.37 92 1002.2
20260503174004 44 315 4.0 20.0 0.01 0.36 0.36 93 1002.2
20260503173023 44 332 9.0 21.0 0.00 0.36 0.35 93 1002.0
20260503172003 43 341 15.0 23.0 0.00 0.36 0.35 92 1002.1
20260503171003 43 345 13.0 23.0 0.00 0.36 0.35 93 1002.2
20260503131003 44 355 7.0 14.0 0.00 0.33 0.27 95 1003.3
20260503081002 44 311 3.0 7.0 0.02 0.14 0.08 94 1006.4
20260503072003 44 52 1.0 3.0 0.01 0.10 0.04 93 1006.6
20260503071003 44 52 2.0 3.0 0.00 0.09 0.03 93 1006.9
20260503055003 44 90 7.0 10.0 0.00 0.06 0.00 93 1007.6
20260503054003 45 87 8.0 9.0 0.00 0.06 0.00 92 1007.7
20260503053002 45 59 5.0 7.0 0.00 0.06 0.00 93 1007.7
20260503052003 45 53 4.0 6.0 0.00 0.06 0.00 93 1007.8
20260503051002 45 50 2.0 3.0 0.00 0.06 0.00 92 1008.0
20260503050024 45 49 0.0 0.0 0.00 0.06 0.00 92 1008.1
20260503045024 45 49 0.0 2.0 0.00 0.06 0.00 92 1008.1
20260503044003 45 49 1.0 4.0 0.00 0.06 0.00 92 1008.3
20260503043024 45 67 1.0 4.0 0.00 0.06 0.00 92 1008.5
20260503042003 45 132 2.0 3.0 0.00 0.06 0.00 92 1008.6
20260503041003 45 133 3.0 4.0 0.00 0.06 0.00 92 1008.7
20260503040003 45 141 3.0 5.0 0.00 0.06 0.00 92 1008.9
20260503035002 45 160 3.0 5.0 0.00 0.06 0.06 92 1009.1
20260503034024 45 155 4.0 5.0 0.00 0.06 0.06 92 1009.2
20260503033003 45 157 4.0 5.0 0.00 0.06 0.06 92 1009.2
20260503032002 45 196 2.0 4.0 0.00 0.06 0.06 91 1009.2